CAPE
0 0 0 0 0 0 0 0 0 0 0 0 0 0 0 0 0 0 150 868 1129 1257 1483 1456 1640 1817 1840 1712 1717 1906 1915 1886 1769 1811 1733 1708 1721 1721 1652 1738 1706 1662 1285 1084 1415 1501 989 932 1008
0 0 0 0 0 0 0 0 0 0 0 0 0 0 0 92 980 815 947 1332 1159 1291 1498 1453 1619 1815 1890 1876 1883 2014 2003 1857 1844 1788 1767 1302 1208 1490 1353 1425 1656 1461 1420 1459 1312 1260 982 971 839
0 0 0 0 0 0 0 0 0 0 0 0 0 0 0 42 989 879 699 1409 1147 1212 1441 1567 1619 1780 1905 1950 1931 1978 1963 1851 1825 1797 1591 1304 1261 1163 1217 1455 1452 1537 1542 817 1213 1180 922 740 478
0 0 0 0 0 0 0 0 0 0 0 0 0 0 0 141 923 887 1051 1557 1166 1054 1136 1586 1531 1702 1928 2040 1992 1951 1872 928 680 960 974 812 737 816 1013 1093 1109 1264 1200 1230 1438 907 816 401 190
0 0 0 0 0 0 0 0 0 0 0 0 0 0 38 466 618 872 1118 1401 1118 897 852 1240 1650 1733 1916 2067 1846 1684 666 253 31 208 317 106 254 269 397 648 923 1112 1097 1291 1151 746 486 242 83
0 0 0 0 0 0 0 0 0 0 0 0 0 5 57 386 714 765 815 1005 965 770 584 1025 1201 1416 1367 1673 1555 1001 509 183 63 63 157 23 77 388 283 473 620 940 750 909 674 580 283 65 30
0 0 0 0 0 0 0 0 0 0 0 0 0 12 44 371 322 404 640 702 756 500 384 571 680 899 973 1035 887 591 607 272 164 123 215 337 216 192 159 432 597 664 597 545 562 442 76 52 4
0 0 0 0 0 0 0 0 0 0 0 0 0 47 178 231 295 374 518 490 498 335 158 213 338 490 454 445 489 393 239 256 332 320 160 327 277 104 171 256 299 336 655 477 388 123 0 3 1
0 0 0 0 0 0 0 0 0 0 0 0 0 15 0 219 409 246 137 179 208 247 96 50 407 363 262 107 136 270 308 139 188 228 345 160 31 204 88 104 140 241 323 362 161 13 3 3 0
0 0 0 0 0 0 0 0 0 0 0 0 0 86 198 489 576 415 170 224 174 128 151 130 122 196 133 69 8 0 2 0 5 71 113 180 84 158 116 96 112 165 203 166 57 0 0 2 0
0 0 0 0 0 0 0 0 0 0 0 0 0 20 296 542 529 399 169 91 140 25 8 125 296 217 66 6 1 1 1 1 3 10 2 16 7 142 142 141 131 82 64 8 1 0 0 0 0
0 0 0 0 0 0 0 0 0 0 0 0 0 0 142 372 393 329 232 42 49 23 23 54 140 261 188 4 0 0 1 1 1 17 24 23 75 77 104 130 56 21 0 0 0 0 0 0 0
0 0 0 0 0 0 0 0 0 0 0 0 0 1 51 161 171 108 115 61 31 39 39 49 39 83 50 50 1 3 1 1 0 43 22 39 84 98 115 33 3 0 0 0 0 0 0 0 0
0 0 0 0 0 0 0 0 0 0 0 0 0 0 12 4 1 0 0 24 28 60 63 4 27 26 27 5 1 2 1 0 0 62 74 89 102 64 47 0 0 0 0 0 0 0 0 0 0
0 0 0 0 0 0 0 0 0 0 0 0 0 0 6 0 0 0 0 4 52 62 60 0 0 0 0 0 0 1 2 3 9 49 66 55 61 21 11 0 0 0 0 0 0 0 0 0 0
0 0 0 0 0 0 0 0 0 0 0 0 0 0 0 0 0 0 0 29 27 39 27 0 0 0 0 0 0 1 2 3 22 43 64 41 6 3 0 0 0 0 0 0 0 0 0 0 0
0 0 0 0 0 0 0 0 0 0 0 0 0 0 0 0 0 0 0 58 7 30 1 0 0 0 0 0 0 0 1 2 6 8 38 42 1 0 0 0 0 0 0 0 0 0 0 0 0
0 0 0 0 0 0 0 0 0 0 0 0 0 0 0 0 0 0 1 63 11 14 0 0 0 0 0 0 1 2 1 1 11 2 2 15 1 0 0 0 0 0 0 0 0 0 0 0 0
0 0 0 0 0 0 0 0 0 0 0 0 0 0 0 0 0 0 8 24 29 22 11 0 1 0 0 1 1 5 1 2 2 2 1 1 3 0 0 0 0 0 0 0 0 0 0 0 0
0 0 0 0 0 0 0 0 0 0 0 0 0 0 0 0 0 0 0 24 25 20 6 0 0 0 0 0 0 0 0 0 1 1 1 2 2 0 0 0 0 0 0 0 0 0 0 0 0
0 0 0 0 0 0 0 0 0 0 0 0 0 0 0 0 0 0 8 32 14 9 2 0 0 0 0 0 0 0 0 2 1 1 1 1 1 0 0 0 0 0 0 0 0 0 0 0 0
0 0 0 0 0 0 0 0 0 0 0 0 0 0 0 0 0 0 0 1 0 11 5 0 0 0 0 0 0 0 1 1 1 0 0 1 0 0 0 0 0 0 0 0 0 0 0 0 0
0 0 0 0 0 0 0 0 0 0 0 0 0 0 0 0 0 0 2 0 0 3 0 0 0 0 0 0 1 1 1 0 0 0 0 1 0 0 0 0 0 5 0 0 3 2 2 2 1
0 0 0 0 0 0 0 0 0 0 0 0 0 0 0 0 0 0 0 0 0 0 0 0 0 3 0 0 1 0 1 0 1 0 0 0 0 0 0 0 0 0 0 0 7 3 0 0 0
0 0 0 0 4 0 0 0 0 0 0 0 0 0 0 0 0 0 0 0 0 0 0 0 0 0 2 10 5 0 0 0 0 0 0 0 0 0 0 0 0 0 0 2 0 6 13 1 0
0 0 0 0 10 5 0 0 0 0 0 0 0 0 0 0 0 0 0 0 0 0 0 0 0 0 0 1 4 0 0 1 0 0 0 0 0 0 0 0 0 0 0 0 0 0 2 7 2
0 0 0 0 0 12 0 0 0 6 0 0 0 0 0 0 0 0 0 0 0 0 0 0 0 0 0 0 0 0 1 0 0 0 0 0 0 0 0 0 0 0 0 0 0 0 0 0 1
0 0 0 41 3 1 0 0 109 25 3 0 0 0 0 0 0 0 0 0 0 0 0 0 0 0 0 0 0 0 0 0 0 0 0 0 0 0 0 0 0 0 0 0 0 0 0 0 0
0 0 0 1 18 39 1 32 66 19 5 3 0 0 0 0 1 21 1 0 0 0 0 0 0 0 0 0 0 0 0 3 2 0 0 0 0 0 0 0 0 0 0 0 3 2 6 5 7
0 0 5 11 7 66 2 0 71 0 0 0 0 0 0 0 0 0 0 0 0 0 0 0 0 0 0 0 0 0 0 5 7 1 0 0 0 1 0 0 0 0 0 0 0 0 5 0 7
CIN
0 0 0 0 0 0 0 0 0 0 0 0 0 0 0 0 0 0 -335 -312 -282 -244 -170 -146 -105 -59 -46 -32 -10 -4 -0 -3 -7 -8 -6 -3 -1 -0 0 0 -0 0 0 0 0 0 -1 0 0
0 0 0 0 0 0 0 0 0 0 0 0 0 0 0 -182 -220 -283 -212 -251 -283 -243 -165 -135 -82 -39 -17 -16 -6 -0 0 0 -2 -4 -1 -28 -37 -14 -10 -4 -0 -0 -0 0 0 0 0 0 0
0 0 0 0 0 0 0 0 0 0 0 0 0 0 0 -178 -236 -277 -306 -274 -280 -234 -154 -106 -72 -32 -6 -2 -0 -0 -0 0 0 0 -2 -11 -10 -14 -11 -3 -3 -0 0 -0 0 0 0 0 0
0 0 0 0 0 0 0 0 0 0 0 0 0 0 0 -378 -239 -265 -331 -272 -286 -255 -195 -84 -66 -22 -1 0 -0 -1 -0 -19 -43 -11 -1 -1 -4 -5 -4 -2 -3 -2 0 -0 -0 0 0 -0 -28
0 0 0 0 0 0 0 0 0 0 0 0 0 0 -259 -317 -337 -306 -279 -270 -297 -278 -244 -131 -40 -10 -0 0 -2 -2 -93 -141 -195 -119 -60 -115 -51 -80 -7 -5 -2 -2 -1 -1 0 0 0 -19 -68
0 0 0 0 0 0 0 0 0 0 0 0 0 -149 -247 -353 -297 -306 -308 -305 -309 -302 -293 -156 -82 -27 -19 -1 -1 -34 -99 -120 -182 -161 -127 -124 -83 -102 -26 -9 -6 -2 -7 -1 0 0 -16 -106 -136
0 0 0 0 0 0 0 0 0 0 0 0 0 -231 -304 -346 -365 -397 -338 -339 -317 -341 -317 -225 -139 -75 -45 -20 -26 -61 -44 -74 -95 -117 -71 -23 -59 -85 -90 -15 -7 -6 -3 -13 -2 0 -71 -112 -77
0 0 0 0 0 0 0 0 0 0 0 0 -16 -223 -191 -312 -409 -419 -364 -364 -344 -339 -339 -287 -198 -121 -114 -92 -67 -79 -92 -75 -60 -46 -76 -24 -45 -76 -48 -18 -30 -25 -3 -0 -0 -20 0 -47 -69
0 0 0 0 0 0 0 0 0 0 0 0 0 -94 0 -431 -416 -429 -455 -413 -381 -315 -342 -353 -172 -160 -171 -253 -170 -94 -54 -113 -74 -67 -22 -48 -98 -26 -39 -48 -15 -33 -19 -0 -20 -116 -243 -122 0
0 0 0 0 0 0 0 0 0 0 0 0 0 -379 -449 -432 -392 -400 -441 -394 -388 -369 -326 -312 -291 -230 -247 -268 -113 0 -68 0 -91 -138 -72 -29 -55 -20 -52 -26 -15 -31 -22 -20 -42 0 -18 -186 0
0 0 0 0 0 0 0 0 0 0 0 0 0 -109 -430 -388 -366 -391 -468 -486 -414 -263 -324 -334 -240 -227 -298 -313 0 0 0 0 -298 -278 -193 -141 -62 -18 -9 -18 -3 -63 -32 -21 -2 0 0 0 0
0 0 0 0 0 0 0 0 0 0 0 0 0 0 -417 -379 -365 -408 -449 -515 -480 -458 -355 -419 -324 -232 -212 -343 0 -0 -0 0 0 -191 -188 -111 -13 -11 -8 -2 -11 -51 0 0 0 0 0 0 0
0 0 0 0 0 0 0 0 0 0 0 0 0 -68 -358 -339 -371 -468 -476 -508 -525 -466 -411 -429 -446 -390 -385 -269 0 0 -0 0 0 -64 -94 -62 -1 -1 -0 -5 -50 0 0 0 0 0 0 0 0
0 0 0 0 0 0 0 0 0 0 0 0 0 0 -379 -114 -131 0 0 -535 -525 -475 -418 -166 -468 -479 -477 -434 0 0 -0 0 0 -30 -7 -3 -1 -0 -2 -0 0 0 0 0 0 0 0 0 0
0 0 0 0 0 0 0 0 0 0 0 0 0 0 -435 0 0 0 0 -580 -526 -499 -428 0 0 0 0 0 0 0 -4 0 -11 -26 -3 -8 -1 -37 -48 -0 0 0 0 0 0 0 0 0 0
0 0 0 0 0 0 0 0 0 0 0 0 0 0 0 0 0 0 0 -579 -550 -522 -465 0 0 0 0 0 0 0 -23 0 -8 -4 0 -11 -6 -61 0 0 0 0 0 0 0 0 0 0 0
0 0 0 0 0 0 0 0 0 0 0 0 0 0 0 0 0 0 0 -587 -598 -548 -74 0 0 0 0 0 -0 0 0 -5 -9 -26 -2 -7 -0 -0 0 0 0 0 0 0 0 0 0 0 0
0 0 0 0 0 0 0 0 0 0 0 0 0 0 0 0 0 0 -338 -610 -640 -553 0 0 0 0 0 -2 0 0 -2 0 -2 -14 -3 -5 -0 -0 0 0 0 0 0 0 0 0 0 0 0
0 0 0 0 0 0 0 0 0 0 0 0 0 0 0 0 0 0 -688 -629 -599 -507 -487 0 0 0 0 -0 -0 0 -0 -12 -7 -2 0 0 -22 -0 0 0 0 0 0 0 0 0 0 0 0
0 0 0 0 0 0 0 0 0 0 0 0 0 0 0 0 0 0 -130 -613 -591 -551 -582 0 0 0 0 0 0 0 0 -1 -2 0 0 0 -0 -0 0 0 0 0 0 0 0 0 0 0 0
0 0 0 0 0 0 0 0 0 0 0 0 0 0 0 0 0 0 -497 -649 -619 -590 -446 0 0 0 0 -0 -0 0 0 -7 0 0 0 0 -12 -0 0 0 0 0 0 -31 0 0 0 0 0
0 0 0 0 0 0 0 0 0 0 0 0 0 0 0 0 0 0 0 -181 -27 -632 -665 0 0 0 -0 -0 -0 0 -0 -2 -0 0 0 0 0 -0 0 0 0 0 0 0 -16 -23 0 -15 -35
0 0 0 0 0 0 0 0 0 0 0 0 0 0 0 0 0 0 -789 0 0 -647 -187 0 0 -0 0 0 -0 -0 0 0 0 -0 0 0 0 0 0 0 0 -27 0 0 -158 -158 -181 -67 -63
0 0 0 0 0 0 0 0 0 0 0 0 0 0 0 0 0 0 0 0 -0 0 0 0 0 -0 0 0 -2 -0 -2 0 0 -2 0 0 -0 0 0 0 0 0 0 0 -132 -170 0 0 -137
0 0 0 -0 -0 0 0 0 0 0 0 0 0 0 0 0 0 0 0 0 -0 0 0 -0 -0 0 -1 -1 -6 -0 0 0 -1 -1 0 -0 -0 0 0 0 0 0 -34 -81 0 -147 -170 -112 0
0 0 0 0 -0 -0 0 0 0 0 0 0 0 0 0 0 0 0 0 0 -0 -0 0 -0 0 -0 0 -1 -0 -0 -4 -0 -0 -0 0 0 0 0 0 0 0 0 0 0 0 0 -159 -144 -132
0 0 0 -1 0 0 0 0 0 -106 0 0 0 0 0 0 0 0 0 0 0 -0 -0 -0 0 0 -0 0 0 0 -20 -4 0 0 0 0 0 0 0 0 0 0 0 0 -61 -107 0 0 -85
0 0 0 0 -0 -3 0 0 -18 -58 -42 0 0 0 0 0 0 0 0 0 0 -150 0 -0 -0 -0 0 0 -0 0 -0 -12 0 0 0 0 0 0 0 0 0 0 0 0 0 0 -57 0 -21
0 0 0 0 -2 -5 -5 -27 -8 0 0 -0 0 0 0 0 -75 -561 -530 0 0 0 0 0 0 -0 0 -0 -0 -1 -1 -14 -21 -24 -28 -43 0 0 0 0 0 0 0 -15 -113 -84 -70 -78 -91
0 -11 -66 -19 -0 -0 0 0 -6 0 0 -0 0 0 0 0 0 0 -30 0 0 0 0 0 0 0 0 0 0 0 0 -13 -11 -12 -2 0 -17 -45 0 0 0 0 0 0 0 -4 -85 -4 -73
Wind_Speed
5 3 2 5 5 5 4 8 3 5 2 4 3 5 7 3 4 5 1 10 6 9 10 10 12 12 15 16 15 15 15 16 18 17 18 20 21 20 21 20 20 19 21 23 22 22 23 25 23
4 3 5 3 6 2 6 5 5 6 7 1 1 4 3 2 2 5 5 7 9 9 10 8 12 12 13 15 15 15 17 17 16 16 16 18 18 18 18 19 18 19 20 21 23 24 24 24 22
6 3 4 4 4 7 6 5 2 10 5 3 2 2 7 5 2 11 5 11 8 7 8 10 13 13 13 14 15 16 17 17 16 16 15 15 15 14 14 14 16 20 20 21 22 24 24 22 22
2 5 5 3 9 7 7 6 1 4 8 5 3 3 1 2 6 7 8 12 9 7 6 8 13 13 14 16 16 17 17 19 19 17 16 15 13 12 8 10 15 18 20 20 23 25 22 21 21
4 4 1 3 8 6 6 9 5 6 5 7 4 4 1 6 5 9 8 10 11 7 5 8 12 13 14 16 18 19 24 22 20 19 18 17 14 12 6 10 15 15 17 21 24 22 21 19 20
4 4 2 6 9 4 6 6 5 9 8 4 5 4 3 0 6 7 6 6 8 9 6 7 14 13 14 13 14 17 21 20 20 16 16 16 16 22 11 15 17 16 18 22 22 21 20 17 19
7 5 6 5 6 7 5 4 5 5 3 6 8 6 1 4 1 7 6 6 7 7 7 8 8 10 12 12 11 9 14 13 13 15 16 22 22 17 19 18 19 18 18 21 21 21 18 18 19
6 5 3 6 4 11 4 4 3 4 6 2 9 7 5 8 8 7 6 7 7 6 6 6 6 7 8 7 11 9 10 11 13 15 16 20 20 19 18 18 22 24 20 18 19 20 17 19 18
4 3 6 9 9 7 3 7 5 4 3 5 5 7 4 13 12 7 4 4 4 3 6 6 8 7 7 6 6 9 10 12 15 16 15 14 9 12 14 12 21 23 19 17 18 18 16 20 19
5 6 11 7 8 4 6 6 9 7 12 6 2 4 5 16 15 13 9 8 6 7 6 8 7 7 8 5 5 5 6 6 5 7 9 9 9 9 14 14 21 21 19 18 17 17 18 17 9
7 10 9 6 5 4 5 8 2 4 11 9 6 5 8 10 10 10 9 9 12 7 5 7 7 8 8 7 5 3 3 4 4 5 5 7 7 7 7 7 6 7 14 9 10 11 7 11 9
5 8 13 5 6 4 7 6 6 6 16 11 10 9 13 14 14 14 11 9 9 7 8 7 7 8 8 5 6 6 5 5 4 7 10 7 6 8 10 8 8 7 7 9 7 4 7 9 8
5 5 8 7 8 7 10 15 11 14 18 14 7 10 16 17 17 10 8 7 7 9 8 8 8 7 7 8 6 6 7 5 6 6 10 11 10 13 10 9 8 7 6 8 8 7 7 9 8
5 15 13 9 11 9 12 18 4 12 11 10 8 13 15 15 19 8 8 10 12 10 11 8 9 8 8 6 8 7 6 5 4 4 7 15 9 11 10 9 8 8 8 7 7 8 6 7 8
7 9 8 5 5 8 6 7 9 12 9 10 10 10 13 17 11 16 15 14 16 12 12 12 9 7 7 7 4 5 6 6 5 4 5 7 11 11 11 9 8 8 7 9 7 6 4 6 7
4 2 2 3 7 7 8 19 8 11 8 10 12 8 10 15 16 17 14 13 12 12 14 10 8 8 7 6 5 3 4 6 5 5 5 8 9 10 9 8 7 8 7 8 7 8 6 6 7
2 4 3 3 5 5 7 9 4 7 7 10 11 10 10 11 10 10 13 15 15 14 14 12 10 9 10 9 5 3 4 5 6 4 6 10 10 9 8 7 7 8 7 7 9 4 7 7 6
7 4 2 4 4 5 11 15 7 8 7 8 10 11 11 8 18 16 16 15 14 13 14 12 9 10 10 5 5 3 3 3 4 6 6 11 10 11 7 6 6 8 6 6 4 7 3 5 7
3 3 3 4 5 4 7 16 12 10 6 9 9 9 12 12 8 9 13 14 15 15 16 15 12 12 10 7 5 3 2 3 2 5 7 10 10 12 10 7 6 7 9 8 6 5 6 3 5
7 5 4 5 2 4 9 24 18 10 15 9 11 11 13 5 8 13 14 15 19 19 17 15 15 15 10 9 6 3 3 2 2 3 7 8 12 13 10 11 9 9 8 8 6 7 4 4 4
4 4 3 6 5 4 7 23 23 22 8 7 8 9 8 10 11 14 16 17 18 20 19 18 17 15 9 11 8 5 4 3 2 3 5 3 12 13 12 10 9 8 8 7 7 6 7 5 3
4 2 2 2 2 5 3 16 21 18 15 11 10 8 10 9 12 14 16 16 20 19 16 13 16 15 13 11 9 12 7 5 3 4 4 4 8 10 12 11 8 8 5 7 7 6 7 5 9
3 3 4 3 1 2 5 5 14 6 11 15 9 8 10 9 17 18 20 22 18 18 16 13 13 15 14 13 10 9 8 5 4 4 7 6 5 7 10 12 11 8 8 8 8 6 5 4 6
6 5 3 2 3 8 10 11 24 9 18 16 15 11 10 9 15 18 18 14 14 15 15 12 14 14 14 14 12 13 12 10 7 7 7 6 6 5 6 9 11 10 9 8 8 6 7 6 6
6 6 3 3 5 7 4 13 20 22 20 15 16 10 8 9 13 15 16 16 18 21 20 15 16 17 15 13 12 13 13 13 12 10 9 9 7 6 8 10 11 9 8 9 8 7 6 5 4
3 7 6 4 3 3 5 9 8 7 11 6 8 10 10 9 12 18 22 21 20 21 21 19 16 17 15 15 15 13 12 9 8 9 7 6 7 8 7 6 7 8 8 8 9 7 6 7 6
4 4 1 1 7 6 6 7 6 14 18 19 15 12 13 13 9 19 20 18 19 19 21 20 19 18 17 18 15 15 12 11 9 8 8 8 7 7 9 9 9 9 9 10 9 8 9 11 11
7 6 2 3 4 5 6 5 3 12 18 18 18 15 14 13 5 12 16 18 17 16 15 15 16 17 18 16 13 13 12 12 10 9 10 9 8 9 8 8 8 8 10 11 12 11 13 14 12
4 3 2 2 3 4 4 3 8 13 16 18 17 15 16 15 5 4 7 7 8 9 10 10 12 13 14 14 12 11 11 12 10 9 10 10 9 10 10 11 11 11 10 11 12 13 13 14 15
5 4 5 3 2 3 5 4 8 7 15 17 20 17 17 16 13 11 10 11 10 9 9 7 6 6 6 7 8 8 9 10 12 11 11 10 10 10 12 12 12 12 13 11 12 13 12 12 14
Wind_Direction
139 120 84 42 59 65 268 261 257 296 295 212 153 155 189 152 158 212 300 172 146 155 170 177 167 155 144 141 136 136 138 132 129 128 130 135 137 136 137 138 136 137 136 134 131 128 130 125 118
132 106 44 85 95 82 265 249 249 251 260 284 134 74 67 230 105 137 123 184 163 153 166 171 165 160 150 142 140 140 140 137 131 127 128 141 138 137 144 140 141 143 139 138 134 131 132 124 118
142 63 91 109 135 192 219 226 42 331 319 283 188 61 160 197 162 169 200 146 134 142 160 174 166 161 156 148 144 144 140 136 130 125 126 129 134 141 142 143 146 141 145 147 139 134 130 125 123
114 17 31 118 223 241 215 257 190 306 311 206 233 167 19 345 165 196 152 138 136 148 160 170 168 164 161 156 154 147 131 112 107 108 114 119 126 137 156 157 152 151 152 146 139 138 132 130 125
41 59 83 256 252 246 231 253 287 254 230 238 189 181 235 335 112 133 145 147 145 150 160 167 167 166 166 170 164 146 134 130 122 131 127 122 119 92 195 185 169 163 153 146 134 137 131 128 126
57 101 87 244 248 260 265 230 244 231 223 220 117 130 204 151 141 154 123 130 134 143 139 158 168 155 168 172 161 157 147 142 147 146 147 160 169 151 181 210 183 169 156 139 140 136 133 127 130
131 106 213 245 269 290 244 254 265 263 122 210 151 139 246 235 170 105 115 123 128 130 136 152 161 157 157 156 169 168 144 151 172 178 176 177 175 165 156 217 189 165 152 141 142 136 128 132 132
123 115 205 234 211 270 230 291 266 38 283 75 134 178 209 208 152 124 118 117 127 146 149 146 149 157 150 154 164 167 188 187 202 194 192 172 165 165 170 211 193 171 138 143 140 131 127 138 133
129 114 213 217 183 230 279 10 306 331 236 282 149 151 221 134 134 124 132 107 120 154 171 164 170 170 164 160 177 189 184 164 175 175 175 164 168 163 187 207 206 157 135 141 138 120 123 136 134
160 188 220 194 215 248 305 336 316 346 323 295 340 17 108 142 164 167 174 165 174 183 187 180 176 175 165 164 161 157 170 165 160 176 169 170 173 183 178 200 198 147 133 136 132 126 128 135 135
201 224 231 250 222 248 267 307 272 289 293 239 256 185 167 160 178 187 190 176 189 187 175 182 172 173 160 169 161 165 160 170 177 172 178 181 170 177 185 169 164 152 134 139 134 124 126 142 137
215 211 227 259 239 267 256 262 266 185 252 252 251 200 168 178 195 200 196 181 180 183 185 174 165 165 158 165 171 173 172 177 174 188 195 186 187 190 167 163 159 158 155 139 136 133 127 138 137
239 239 244 236 246 240 263 262 254 268 259 262 236 170 191 191 202 199 201 190 177 183 183 176 159 160 160 170 169 170 183 187 194 190 191 203 207 181 169 156 155 146 150 146 146 136 134 139 136
238 227 247 259 262 256 258 268 213 258 261 262 201 203 203 198 205 182 174 186 189 178 179 170 170 165 154 160 168 172 174 185 183 177 194 211 180 151 153 151 150 153 154 139 150 147 143 136 140
245 260 260 225 231 242 231 256 228 239 266 254 241 217 213 216 197 205 190 184 184 179 170 172 163 154 160 152 155 163 168 170 191 187 152 139 148 146 152 150 154 153 151 145 150 137 130 126 140
245 227 189 241 200 252 159 263 255 250 260 265 270 233 211 226 211 210 185 178 173 161 171 160 156 152 148 143 175 170 164 169 186 176 164 146 138 141 151 149 153 144 141 143 161 155 141 136 143
283 252 190 288 229 242 184 289 281 313 269 270 274 267 243 219 213 201 184 173 171 165 166 165 156 152 155 155 151 187 163 169 173 152 165 161 150 145 158 150 146 142 147 155 159 142 149 137 136
233 232 171 189 271 325 292 286 290 287 276 276 279 281 270 225 212 196 175 169 162 158 169 165 158 147 151 141 113 127 148 127 176 167 166 154 156 149 144 122 145 142 140 149 134 156 108 139 141
228 236 223 251 276 310 270 295 291 285 264 281 279 282 273 245 228 172 161 161 153 164 173 175 165 160 150 152 144 134 156 153 150 170 174 157 151 154 152 149 148 154 168 161 155 146 131 96 121
237 250 265 272 274 330 309 293 290 265 267 236 264 280 285 233 162 152 160 167 171 170 176 174 179 170 160 164 152 131 134 135 138 143 168 169 154 149 151 154 170 173 165 166 164 164 131 107 177
221 213 201 243 342 297 314 290 295 277 246 265 249 253 280 209 189 164 168 176 172 179 179 176 179 172 161 157 156 129 108 96 129 141 162 152 156 152 154 157 165 169 176 176 173 157 161 139 182
242 215 160 120 78 252 62 286 275 286 276 244 259 244 250 209 196 190 168 174 184 183 174 170 171 172 175 161 162 159 167 168 175 159 153 141 146 145 148 159 154 168 171 174 184 174 177 147 177
219 62 92 113 152 320 164 275 286 322 264 263 248 245 245 210 195 191 186 187 178 173 172 168 161 174 174 179 169 167 167 167 142 157 162 164 144 144 158 165 171 173 190 184 179 164 168 181 164
133 63 34 116 142 259 187 191 278 259 257 256 257 250 233 208 200 199 196 161 163 167 168 165 168 177 175 183 178 177 176 168 160 171 174 173 168 154 158 168 178 186 174 176 183 173 168 179 177
73 72 328 306 202 255 236 187 247 302 278 239 248 243 233 202 196 190 171 169 168 172 172 168 177 187 177 180 185 185 180 176 182 178 185 175 174 174 179 175 191 190 178 180 172 183 170 177 192
159 158 179 250 252 301 235 227 252 302 347 316 275 265 262 230 195 187 186 178 173 173 172 172 175 185 181 187 191 191 181 183 184 178 174 178 192 194 155 175 182 188 184 185 189 188 193 211 218
173 180 193 278 243 244 231 279 254 3 359 354 354 8 354 301 230 192 183 176 169 170 176 172 176 182 185 188 191 192 185 187 189 180 175 179 177 187 191 184 184 182 185 187 193 199 195 203 221
150 147 119 204 273 240 253 247 298 1 354 343 10 354 355 340 260 183 177 171 170 172 165 166 175 181 182 185 189 192 188 188 188 193 196 183 179 180 177 180 192 191 195 190 190 202 211 208 217
145 150 128 231 229 304 305 259 37 6 350 340 348 2 5 360 44 116 142 130 137 144 158 163 170 174 178 181 183 188 189 191 190 195 202 203 195 190 193 192 193 194 199 200 202 210 208 211 219
159 150 158 186 215 244 289 275 18 358 344 340 349 358 22 19 66 75 89 97 104 105 114 118 139 156 165 170 184 192 193 194 194 197 199 199 203 205 205 206 207 204 206 203 209 213 211 206 216